星链-3270 (STARLINK-3270 )

导读

STARLINK-3270是美国太空探索技术公司(SpaceX)于2021年12月18日发射的星链(Starlink)卫星,属于星链星座组网的卫星之一。星链计划旨在构建全球卫星互联网,该卫星承担着为全球提供高速互联网接入服务的任务,助力偏远地区网络覆盖,推动全球互联互通建设。

Basic Information
目录编号:
50199
目录名称:
STARLINK-3270
国际标识:
2021-125AV
轨道中心:
EARTH
卫星名称:
星链-3270
卫星全名:
星链-3270 (STARLINK-3270 )
卫星状态:
在轨 (已飞行1642 天)
发射日期:
2021-12-18 UTC
国别 :
美国 (US)
星等 :
--
Orbit Information
数据来源 国际轨道数据 AOE轨道数据
星历时间 2026-06-17T13:14:22+0800
15小时前
查看轨道信息
2026-06-16T23:00:00+0800
1天前
查看轨道信息
半长轴 6917.871km 6917.874km
偏心率 0.0001389 0.0001416
轨道倾角 53.159° 53.157°
近地点辐角 71.386° 61.798°
升交点赤经 152.223° 154.892°
平近点角 288.728° 313.777°
近地点 538.773km 538.757km
远地点 540.695km 540.717km
周期 95.437分钟 95.437分钟
每日圈数 15.088432 15.088424
Detailed Information
固有亮度:
5
最大亮度:
2.5
卫星平台:
Starlink v1.5
覆盖范围:
全球
运营商:
太空探索技术公司
运营商所在国:
美国
制造商(研发单位):
太空探索技术公司
制造商所在国:
美国
使用方式:
暂无
Satellite Introduction
星链(Starlink)计划是由太空探索技术公司(SpaceX)提出的一个巨型低轨卫星互联网星座项目,计划在2019年至2024年间在太空搭建由约1.2万颗卫星组成的“星链”网络,其中1584颗将部署在地球上空550千米处的近地轨道,并从2020年开始工作。该卫星仍在工作。
2D Orbit Map
3D Orbit Map
Orbit Altitude Analysis Chart
Orbit Inclination Analysis Chart
Orbit Comprehensive Analysis Chart
View Comprehensive Chart